Home > Weather > Piešťany > Past weeks

Flag for Slovakia Weather for the Past 2 Weeks in Piešťany, Slovakia

Now
32 °F

Overcast.


Feels Like: 27 °F
Forecast: 37 / 52 °F
Wind: 5 mph from Northeast

Location: Piestany

Current Time: Feb 6, 2016 at 4:40:29 AM

Latest Report: Feb 6, 2016 at 4:00 AM


Visibility: N/A

Pressure: 30.30 "Hg

Humidity: 87%

Dew point: 28 °F

Location of PiešťanyLocation

Historic Weather in Piešťany — Graph

°F

Piešťany Temperature Yesterday

Maximum temperature yesterday: 43 °F (at 2:00 PM)
Minimum temperature yesterday: 28 °F (at 7:00 PM)
Average temperature yesterday: 35 °F

High & Low Weather Summary for the Past Weeks

 TemperatureHumidityPressure
High52 °F (Feb 2, 12:30 PM)100% (Jan 23, 10:00 PM)30.57 "Hg (Jan 23, 10:00 PM)
Low5 °F (Jan 22, 4:00 AM)49% (Jan 31, 12:30 PM)29.83 "Hg (Jan 31, 1:30 AM)
Average34 °F89%30.25 "Hg
* Reported Jan 22 3:00 AM — Feb 6 3:30 AM, Piešťany, Weather by CustomWeather, © 2016

Note: Actual official high and low records may vary slightly from our data, if they occured in-between our weather recording intervals... More about our weather records

Advertising

Piešťany Weather History for the Previous 24 Hours

 ConditionsComfort  
Time TempWeatherWind HumidityBarometerVisibility
3:30 AM
Sat, Feb 6
32 °FOvercast.2 mph87%30.30 "HgN/A
3:00 AM32 °FOvercast.3 mph87%30.30 "HgN/A
2:30 AM32 °FOvercast.1 mph87%30.33 "HgN/A
1:30 AM32 °FOvercast.2 mph87%30.33 "HgN/A
1:00 AM30 °FOvercast.3 mph93%30.33 "HgN/A
12:30 AM30 °FMostly cloudy.No wind93%30.33 "HgN/A
12:00 AM30 °FMostly cloudy.1 mph93%30.33 "HgN/A
11:30 PM
Fri, Feb 5
30 °FOvercast.2 mph93%30.33 "HgN/A
11:00 PM30 °FPassing clouds.3 mph93%30.33 "HgN/A
10:30 PM30 °FOvercast.2 mph86%30.33 "HgN/A
10:00 PM32 °FOvercast.No wind80%30.33 "HgN/A
9:30 PM32 °FOvercast.2 mph80%30.36 "HgN/A
9:00 PM30 °FClear.2 mph86%30.36 "Hg10 mi
8:30 PM28 °FClear.2 mph86%30.36 "Hg10 mi
8:00 PM30 °FClear.3 mph80%30.33 "Hg10 mi
7:30 PM30 °FClear.1 mph86%30.33 "Hg10 mi
7:00 PM28 °FClear.1 mph86%30.33 "Hg10 mi
6:30 PM32 °FClear.1 mph80%30.33 "Hg10 mi
6:00 PM32 °FClear.2 mph75%30.33 "Hg10 mi
5:30 PM36 °FClear.3 mph65%30.33 "Hg10 mi
5:00 PM37 °FClear.8 mph65%30.33 "Hg10 mi
4:30 PM39 °FSunny.9 mph61%30.33 "Hg10 mi
4:00 PM41 °FPassing clouds.9 mph53%30.33 "HgN/A
3:30 PM41 °FScattered clouds.10 mph57%30.30 "HgN/A
3:00 PM41 °FScattered clouds.12 mph57%30.30 "HgN/A
2:30 PM41 °FScattered clouds.10 mph61%30.30 "HgN/A
2:00 PM43 °FScattered clouds.12 mph53%30.30 "HgN/A
1:30 PM41 °FScattered clouds.8 mph66%30.30 "HgN/A
1:00 PM41 °FScattered clouds.9 mph66%30.33 "HgN/A
12:30 PM39 °FScattered clouds.8 mph70%30.33 "HgN/A
12:00 PM41 °FScattered clouds.6 mph66%30.33 "HgN/A
11:30 AM39 °FPassing clouds.6 mph70%30.33 "HgN/A
11:00 AM39 °FScattered clouds.7 mph70%30.33 "HgN/A
10:30 AM39 °FScattered clouds.8 mph70%30.33 "HgN/A
10:00 AM37 °FScattered clouds.12 mph75%30.30 "HgN/A
9:30 AM37 °FPassing clouds.12 mph75%30.30 "HgN/A
9:00 AM36 °FPassing clouds.13 mph81%30.27 "HgN/A
8:30 AM36 °FScattered clouds.6 mph81%30.27 "HgN/A
8:00 AM34 °FScattered clouds.6 mph87%30.27 "HgN/A
7:30 AM34 °FScattered clouds.10 mph87%30.24 "HgN/A
7:00 AM32 °FPassing clouds.6 mph93%30.21 "HgN/A
6:30 AM34 °FLight rain. Mostly cloudy.5 mph93%30.18 "Hg4 mi
6:00 AM34 °FMostly cloudy.2 mph93%30.18 "HgN/A
5:30 AM34 °FLight rain. Mostly cloudy.1 mph93%30.15 "HgN/A
5:00 AM34 °FLight rain. Mostly cloudy.No wind93%30.15 "Hg4 mi
4:30 AM34 °FDrizzle. Overcast.3 mph93%30.15 "HgN/A
4:00 AM34 °FPassing clouds.1 mph93%30.15 "HgN/A
Weather by CustomWeather, © 2016

See weather overviewHow to use our weather pages